This demonstration page uses our WeatherBlox Daily Observations layout. Learn more.

39.92423, -83.80882

Hourly Observations for May 1, 2017

Temp ( °F °C ) Dew Point ( °F °C ) Humidity (%) Winds ( mph kmh ) Pressure ( in mb ) Visibility ( mi km ) Precip ( " mm )
12:56 am 00:56 Mostly Clear 72 22.2 60 15.6 66 66 S 12 19 29.72 1006 10 16.0934 0 0
1:56 am 01:56 Mostly Cloudy 73 22.8 59 15 62 62 SSW 10 17 29.72 1007 10 16.0934 0 0
2:56 am 02:56 Cloudy 71 21.7 60 15.6 68 68 S 12 19 29.7 1006 10 16.0934 0 0
3:56 am 03:56 Cloudy with Light Rain 70 21.1 61 16.1 73 73 S 10 17 29.68 1005 10 16.0934 0 0.0254
4:56 am 04:56 Cloudy with Light Rain 66 18.9 62 16.7 87 87 SSE 12 19 29.65 1004 10 16.0934 0.04 1.016
5:56 am 05:56 Cloudy 68 20 62 16.7 81 81 S 12 19 29.62 1003 10 16.0934 0 0.0254
6:56 am 06:56 Mostly Cloudy with Light Rain 69 20.6 62 16.7 78 78 S 14 22 29.6 1002 10 16.0934 0 0.0254
7:27 am 07:27 Cloudy 70 21 63 17 78 78 S 14 22 29.53 1000 10 16.0934 0 0.0254
7:56 am 07:56 Cloudy with Rain 61 16.1 58 14.4 90 90 WSW 25 41 29.61 1003 4 6.43736 0.08 2.032
8:03 am 08:03 Cloudy with Light Rain 59 15 57 14 94 94 WSW 23 37 29.59 1002 8 12.87472 0.01 0.254
8:12 am 08:12 Cloudy with Light Rain 59 15 55 13 88 88 WSW 23 37 29.62 1003 10 16.0934 0.02 0.508
8:56 am 08:56 Cloudy with Light Rain 55 12.8 52 11.1 90 90 WSW 22 35 29.63 1003 5 8.0467 0.11 2.794
9:03 am 09:03 Cloudy with Light Rain 55 13 50 10 82 82 WSW 22 35 29.65 1004 6 9.65604 0 0.0254
9:37 am 09:37 Cloudy with Light Rain 55 13 52 11 88 88 SW 10 17 29.62 1003 10 16.0934 0.01 0.254
9:56 am 09:56 Cloudy with Light Rain 55 12.8 53 11.7 93 93 SSW 10 17 29.64 1004 10 16.0934 0.02 0.508
10:05 am 10:05 Cloudy 55 13 54 12 94 94 SSW 9 15 29.65 1004 10 16.0934 0 0
10:56 am 10:56 Cloudy 56 13.3 52 11.1 87 87 SSW 8 13 29.61 1003 10 16.0934 0 0
11:56 am 11:56 Mostly Cloudy 60 15.6 51 10.6 72 72 S 12 19 29.56 1001 10 16.0934 0 0
12:56 pm 12:56 Mostly Cloudy 63 17.2 51 10.6 65 65 SW 20 31 29.56 1001 10 16.0934 0 0
1:56 pm 13:56 Cloudy 65 18.3 52 11.1 63 63 SSW 13 20 29.51 999 10 16.0934 0 0
2:56 pm 14:56 Mostly Cloudy 67 19.4 52 11.1 59 59 SW 23 37 29.49 999 10 16.0934 0 0
3:56 pm 15:56 Cloudy 64 17.8 48 8.9 56 56 SW 23 37 29.52 1000 10 16.0934 0 0
4:56 pm 16:56 Cloudy 61 16.1 46 7.8 58 58 SW 37 59 29.55 1001 10 16.0934 0 0
5:56 pm 17:56 Mostly Cloudy 58 14.4 43 6.1 58 58 WSW 26 43 29.59 1002 10 16.0934 0 0
6:56 pm 18:56 Cloudy 56 13.3 41 5 57 57 WSW 29 46 29.63 1004 10 16.0934 0 0
7:56 pm 19:56 Mostly Cloudy 78 25.6 62 16.7 58 58 S 13 20 29.8 1009 10 16.0934 0 0
8:56 pm 20:56 Cloudy 53 11.7 41 5 64 64 WSW 20 31 29.7 1006 10 16.0934 0 0
9:56 pm 21:56 Cloudy 52 11.1 41 5 66 66 WSW 20 31 29.7 1006 10 16.0934 0 0
10:56 pm 22:56 Cloudy with Light Rain 51 10.6 41 5 69 69 WSW 15 24 29.71 1006 10 16.0934 0 0.0254
11:56 pm 23:56 Cloudy 49 9.4 42 5.6 77 77 WSW 16 26 29.7 1006 10 16.0934 0 0.0254

Powered by AerisWeather